Regional Weather Roundup
Issued by NWS

Home | Current Version | Previous Version | Graphics & Text | Print | Product List | Glossary On
Versions: 1 2 3 4 5 6 7 8 9 10 11 12 13 14 15 16 17 18 19 20 21 22 23 24 25 26 27 28 29 30 31 32 33 34 35 36 37 38 39 40 41 42 43 44 45 46 47 48 49 50
000
ASUS45 KCYS 061810
RWRWY

WYOMING REGIONAL WEATHER ROUNDUP
NATIONAL WEATHER SERVICE CHEYENNE WY
1100 AM MST FRI MAR 06 2015

NOTE:  "FAIR" INDICATES FEW OR NO CLOUDS BELOW 12,000 FEET
WITH NO SIGNIFICANT WEATHER AND/OR OBSTRUCTIONS TO VISIBILITY.

WYZ001-061900-
YELLOWSTONE NATIONAL PARK

CITY           SKY/WX    TMP DP  RH WIND       PRES   REMARKS
LK YELLOWSTONE   N/A     19   8  62 E3        30.40F
6HR MIN TEMP:   1; 6HR MAX TEMP:  20;

W YELLOWSTONE  NOT AVBL

$$
WYZ002>013-054>058-071-098>099-061900-
NORTHERN WYOMING

CITY           SKY/WX    TMP DP  RH WIND       PRES   REMARKS
JACKSON        SUNNY     21  12  68 NE8       30.44S WCI  12
CODY           FAIR      48  16  27 W9G24     30.22S
GREYBULL       FAIR      41  17  38 SE7       30.26F
6HR MIN TEMP:  16; 6HR MAX TEMP:  41;

WORLAND        FAIR      39  20  46 W3        30.26F
6HR MIN TEMP:  19; 6HR MAX TEMP:  39;

SHERIDAN       FAIR      47  21  35 SW5       30.19S
6HR MIN TEMP:  23; 6HR MAX TEMP:  48;

BUFFALO        FAIR      48  20  32 VRB3      30.21R
6HR MIN TEMP:  29; 6HR MAX TEMP:  48;

GILLETTE       FAIR      48  18  30 NW18G24   30.18S
6HR MIN TEMP:  30; 6HR MAX TEMP:  48;

HULETT         CLOUDY    46  19  34 W10G20    30.17S
NEWCASTLE      FAIR      46  12  25 W14G21    30.20S

$$
WYZ014>020-022>026-101>103-061900-
CENTRAL WYOMING

CITY           SKY/WX    TMP DP  RH WIND       PRES   REMARKS
BIG PINEY      FAIR      41  11  29 N16       30.38S
6HR MIN TEMP:  10; 6HR MAX TEMP:  42;

PINEDALE       FAIR      32  18  55 NW15      30.38S WCI  22
DUBOIS         FAIR      36  14  41 NW22G29   30.31S WCI  24
LANDER         FAIR      37  18  46 CALM      30.26R
6HR MIN TEMP:  12; 6HR MAX TEMP:  37;

RIVERTON       FAIR      30  15  53 CALM      30.28S
6HR MIN TEMP:   9; 6HR MAX TEMP:  30;

CASPER         FAIR      35  20  54 SW21      30.27S WCI  24
6HR MIN TEMP:  24; 6HR MAX TEMP:  35;

DOUGLAS        FAIR      37  23  56 W10       30.25S WCI  30
6HR MIN TEMP:  13; 6HR MAX TEMP:  37;


$$
WYZ021-027>030-104>119-061900-
SOUTHERN WYOMING

CITY           SKY/WX    TMP DP  RH WIND       PRES   REMARKS
EVANSTON       FAIR      37  16  42 SW9       30.44S WCI  30
6HR MIN TEMP:  19; 6HR MAX TEMP:  37;

KEMMERER       FAIR      36  18  48 W14       30.42  WCI  27
FORT BRIDGER   FAIR      41  16  36 W10G18    30.46R
ROCK SPRINGS   FAIR      35  16  45 W20       30.38F WCI  24
6HR MIN TEMP:  22; 6HR MAX TEMP:  35;

DIXON          FAIR      36  18  49 SW12      30.44F WCI  27
RAWLINS        FAIR      33  18  53 SW16G24   30.33F WCI  23
6HR MIN TEMP:  24; 6HR MAX TEMP:  33;

SARATOGA       FAIR      34  18  51 SE5       30.36F WCI  30
LARAMIE        FAIR      37  14  38 SW12      30.28F WCI  29
6HR MIN TEMP:  23; 6HR MAX TEMP:  37;

CHEYENNE       FAIR      44  14  29 NW10      30.27F
6HR MIN TEMP:  31; 6HR MAX TEMP:  44;

TORRINGTON     FAIR      51  17  26 W15       30.24S
6HR MIN TEMP:  28; 6HR MAX TEMP:  51;

PINE BLUFFS    FAIR      48  14  25 NW25G31   30.27S

$$



USA.gov is the U.S. government's official web portal to all federal, state and local government web resources and services.